Regional Weather Roundup
Issued by NWS

Current Version | Previous Version | Text Only | Print | Product List | Glossary On
Versions: 1 2 3 4 5 6 7 8 9 10 11 12 13 14 15 16 17 18 19 20 21 22 23 24 25 26 27 28 29 30 31 32 33 34 35 36 37 38 39 40 41 42 43 44 45 46 47 48 49 50
000
ASUS44 KFWD 150303
RWRTX
NORTH TEXAS HOURLY WEATHER ROUNDUP
NATIONAL WEATHER SERVICE FORT WORTH TX
1000 PM CDT SAT SEP 14 2019

NOTE: "FAIR" INDICATES FEW OR NO CLOUDS BELOW 12,000 FEET WITH NO
SIGNIFICANT WEATHER AND/OR OBSTRUCTIONS TO VISIBILITY.

TXZ118-119-150400-
DALLAS/FORT WORTH METROPLEX

CITY           SKY/WX    TMP DP  RH WIND       PRES   REMARKS
DFW AIRPORT    FAIR      86  64  47 E7        30.07R
DALLAS LOVE    FAIR      89  64  43 E5        30.07R HX  90
FTW MEACHAM    FAIR      86  62  44 E7        30.08R
DAL-EXECUTIVE  FAIR      86  64  47 E5        30.08R
FTW-ALLIANCE   FAIR      85  62  46 E7        30.08R
FTW-NAS-JRB    FAIR      88  59  37 E6        30.08R
FTW-SPINKS     FAIR      80  60  50 CALM      30.10R
ARLINGTON      FAIR      88  64  44 E6        30.08R
GRAND PRAIRIE  FAIR      86  63  45 E3        30.09R
ADDISON        CLEAR     88  61  40 E7        30.09R
MESQUITE       FAIR      82  66  57 CALM      30.08R
LANCASTER      FAIR      88  64  44 NE5       30.08R
$$

TXZ091>094-102>105-117-120-121-131>134-150400-
NORTH CENTRAL TEXAS

CITY           SKY/WX    TMP DP  RH WIND       PRES   REMARKS
SHRMAN/DENISON FAIR      85  64  48 SE6       30.11R
GAINESVILLE    FAIR      80  64  59 E3        30.12S
BOWIE          FAIR      75  64  68 CALM      30.12R
BRIDGEPORT     FAIR      80  60  51 CALM      30.11R
DECATUR        FAIR      82  60  47 E6        30.11R
DENTON         FAIR      87  62  43 E6        30.09R
MCKINNEY       FAIR      83  62  49 CALM      30.09R
BONHAM         FAIR      79  65  62 CALM      30.11R
GREENVILLE     FAIR      81  70  69 CALM      30.10R
ROCKWALL       FAIR      82  65  56 E5        30.09R
TERRELL        FAIR      83  69  62 NE5       30.08R
WAXAHACHIE     FAIR      83  65  54 CALM      30.10R
CLEBURNE       FAIR      84  61  45 E7        30.11R
GRANBURY       FAIR      85  61  43 SE3       30.10R
$$

TXZ083>090-098>101-113>116-127>130-139>142-154-155-150400-
WESTERN NORTH TEXAS

CITY           SKY/WX    TMP DP  RH WIND       PRES   REMARKS
WICHITA FALLS  FAIR      77  67  71 SE7       30.09R
WF-KICKAPOO    FAIR      79  65  61 E6        30.12R
VERNON         FAIR      81  65  58 SE6       30.11R
ABILENE        NOT AVBL
ABILENE-DYESS  FAIR      78  58  50 CALM      30.12R
GRAHAM         FAIR      79  61  54 CALM      30.09R
BRECKENRIDGE   FAIR      82  57  43 MISG      30.11R
CISCO          FAIR      79  59  50 SE6       30.13R
EASTLAND       FAIR      70  62  75 CALM      30.12R
RANGER         FAIR      76  58  54 SE5       30.13R
MINERAL WELLS  FAIR      78  60  53 SE6       30.08R
STEPHENVILLE   FAIR      82  58  43 E7        30.14R
COMANCHE       MOCLDY    80  60  50 SE5       30.12R
COLEMAN        FAIR      78  54  43 CALM      30.13R
BRADY          MOCLDY    81  55  41 E6        30.12R
$$

TXZ143>147-156>162-174-175-150400-
CENTRAL TEXAS

CITY           SKY/WX    TMP DP  RH WIND       PRES   REMARKS
WACO           FAIR      84  59  42 E5        30.06R
WACO-TSTC      CLEAR     79  64  61 CALM      30.06R
WACO-MCGREGOR  FAIR      83  58  42 E6        30.07R
HILLSBORO      FAIR      85  62  45 NE7       30.08R
CORSICANA      FAIR      84  68  58 NE5       30.07R
MEXIA          FAIR      84  61  45 E3        30.06S
HEARNE         FAIR      83  67  58 CALM      30.06R
CAMERON        FAIR      85  64  48 CALM      30.06R
TEMPLE         FAIR      83  61  47 E7        30.08R
KILLEEN        FAIR      84  58  40 E5        30.08R
KILLEEN-SKYLRK FAIR      84  60  44 MISG      30.08R
FORT HOOD      FAIR      84  57  39 E5        30.08R
GATESVILLE     FAIR      81  59  47 CALM      30.10R
LAMPASAS       FAIR      82  58  43 CALM      30.09R
$$

TXZ095>097-106>112-122>126-135>138-148>153-164>167-150400-
EAST TEXAS

CITY           SKY/WX    TMP DP  RH WIND       PRES   REMARKS
PARIS          FAIR      80  68  66 E5        30.10R
SULPHUR SPRNGS FAIR      81  69  68 E3        30.11R
MOUNT PLEASANT FAIR      84  63  48 NE3       30.10R
GILMER         FAIR      81  67  61 CALM      30.08R
MINEOLA        FAIR      77  68  73 CALM      30.08R
TYLER          FAIR      87  61  41 E5        30.08R
LONGVIEW       FAIR      84  68  58 SE6       30.07R
MARSHALL       FAIR      76  67  73 MISG      30.10R
ATHENS         FAIR      81  66  61 CALM      30.06R
PALESTINE      FAIR      80  70  71 E3        30.08R
JACKSONVILLE   FAIR      84  64  51 E3        30.10S
HENDERSON      FAIR      84  65  53 CALM      30.09R
CENTER         FAIR      77  67  71 CALM      30.07S
NACOGDOCHES      N/A    N/A N/A N/A MISG        N/A
LUFKIN         FAIR      80  66  62 CALM      30.06R
$$

SUPPLEMENTAL OBSERVATIONS (NWS FORT WORTH AREA)

CITY           SKY/WX    TMP DP  RH WIND       PRES   REMARKS
$$

SUPPLEMENTAL OBSERVATIONS (NWS NORMAN AREA)

CITY           SKY/WX    TMP DP  RH WIND       PRES   REMARKS
GOODLETT         N/A     80  62  53 SE9       30.11R
ODELL            N/A     82  63  53 SE9       30.11R
CROWELL          N/A     78  64  62 SE5       30.12R
KNOX CITY        N/A     80  60  50 SE6       30.12R
SEYMOUR          N/A     77  64  63 E6        30.10S
$$

SUPPLEMENTAL OBSERVATIONS (NWS SAN ANGELO AREA)

CITY           SKY/WX    TMP DP  RH WIND       PRES   REMARKS
WEINERT          N/A     79  62  56 SE3       30.12R
HASKELL          N/A     82  59  45 SE7       30.12R
THROCKMORTON     N/A     78  64  62 E2        30.12R
STAMFORD         N/A     79  58  48 SE6       30.12R
CLYDE            N/A     77  58  51 E5        30.15R
$$

SUPPLEMENTAL OBSERVATIONS (NWS SHREVEPORT AREA)

CITY           SKY/WX    TMP DP  RH WIND       PRES   REMARKS
$$

SUPPLEMENTAL OBSERVATIONS ARE A COLLECTION OF AUTOMATED INSTRUMENTS
THAT ARE MAINTAINED BY A VARIETY OF FEDERAL AND STATE AGENCIES.
CERTAIN ELEMENTS...SUCH AS HUMIDITY VALUES AND SUSTAINED WIND
SPEEDS...MAY BE APPROXIMATED.




USA.gov is the U.S. government's official web portal to all federal, state and local government web resources and services.